Tracking 31027 objects as of 19-Jul-2025
HD Live streaming from Space Station
objects crossing your sky now

BREEZE-KM R/B

Track BREEZE-KM R/B now!
10-day predictions


NORAD ID: 39764
Int'l Code: 2014-028D
Perigee: 1,157.1 km
Apogee: 1,511.7 km
Inclination: 82.4 °
Period: 112.2 minutes
Semi major axis: 7705 km
RCS: Unknown
Launch date: May 23, 2014
Source: Commonwealth of Independent States (former USSR) (CIS)
Launch site: PLESETSK MISSILE AND SPACE COMPLEX (PKMTR)

Note: This is a ROCKET BODY
Your satellite tracking list
STARLINK-6351
Track 1 satellite(s)




NASA's NSSDC Master Catalog

Two Line Element Set (TLE):
1 39764U 14028D   25199.46659310  .00000021  00000-0  31998-4 0  9991
2 39764  82.4415 114.7752 0230134  59.4624 302.8973 12.83546074522646
Source of the keplerian elements: AFSPC